Tracking 18856 objects as of 12-Dec-2017
HD Live streaming from Space Station
objects crossing your sky now

RIGIDSPHERE 2 (LCS 4)

Track RIGIDSPHERE 2 (LCS 4) now!
10-day predictions
RIGIDSPHERE 2 (LCS 4) is classified as:


NORAD ID: 5398
Int'l Code: 1971-067E
Perigee: 740.0 km
Apogee: 833.4 km
Inclination: 87.6 °
Period: 100.4 minutes
Semi major axis: 7157 km
RCS: 0.9311 m2 (medium)
Launch date: August 7, 1971
Source: United States (US)
Launch site: AIR FORCE WESTERN TEST RANGE (AFWTR)
aabbcc
Your satellite tracking list
Your tracking list is empty




NASA's NSSDC Master Catalog

Two Line Element Set (TLE):
1 05398U 71067E   17345.87118880  .00000199  00000-0  63572-4 0  9993
2 05398  87.6224 117.5182 0065284  61.8129 298.9641 14.33646682428245
Source of the keplerian elements: AFSPC